User: anonymous   Login
Location: Unspecified
(0.0000°N, 0.0000°E)
Time: 12:39:09
(UTC+00:00)
Language:

Geos 1 - Orbit

View from above orbital plane
View from above orbital plane
View from above satellite
View from above satellite

Ground track
Ground track

The orbit data is extracted from the following two-line orbital elements,

1  9931U 77029A   18020.84131026 -.00000189 +00000-0 +00000-0 0  9992
2  9931 026.4381 248.1875 6613361 093.6578 338.1726 01.96181919291644
Epoch (UTC): 20 January 2018 20:11:29
Eccentricity: 0.6613361
inclination: 26.4381°
perigee height: 2750 km
apogee height: 38402 km
right ascension of ascending node: 248.1875°
argument of perigee: 93.6578°
revolutions per day: 1.96181919
mean anomaly at epoch: 338.1726°
orbit number at epoch: 29164

The dashed part of the orbit path shows where the satellite is in the earth's shadow,  

DLR